Regional Weather Roundup
Issued by NWS

Home | Current Version | Previous Version | Text Only | Print | Product List | Glossary On
Versions: 1 2 3 4 5 6 7 8 9 10 11 12 13 14 15 16 17 18 19 20 21 22 23 24 25 26 27 28 29 30 31 32 33 34 35 36 37 38 39 40 41 42 43 44 45 46 47 48 49 50
329
ASUS43 KDMX 240103
RWRIA

WEATHER ROUNDUP FOR IOWA
NATIONAL WEATHER SERVICE DES MOINES IA
800 PM CDT MON MAY 23 2016

NOTE: "FAIR" INDICATES FEW OR NO CLOUDS BELOW 12,000 FEET WITH NO
SIGNIFICANT WEATHER AND/OR OBSTRUCTIONS TO VISIBILITY.

* - THESE STATIONS ARE NOT NWS STATIONS...THUS NOT UNDER NWS
QUALITY CONTROL.  THEY ALSO DO NOT REPORT WEATHER SUCH
AS PRECIPITATION OR FOG.

IAZ001>003-012>014-020>022-031>034-043>046-240200-
   NORTHWEST IOWA

CITY           SKY/WX    TMP DP  RH WIND       PRES   REMARKS
CARROLL *      CLOUDY    68  64  88 SE7       29.80R
CHEROKEE *     CLOUDY    65  64  96 S12       29.77S
DENISON *      CLEAR     66  64  94 CALM      29.77S
LE MARS *      CLOUDY    66  64  94 S8        29.78F
ORANGE CITY *  LGT RAIN  64  63  94 S10       29.78F
SHELDON *      CLOUDY    64  63  94 S15       29.78R
SIOUX CITY     CLOUDY    68  64  87 S9        29.76R
SPENCER        LGT RAIN  68  63  84 S12       29.78S
STORM LAKE *   LGT RAIN  66  63  88 SW15G23   29.78F
$$

IAZ055>058-069>071-079>083-090>094-240200-
   SOUTHWEST IOWA

CITY           SKY/WX    TMP DP  RH WIND       PRES   REMARKS
ATLANTIC *     MOCLDY    70  59  68 S9        29.81R
AUDUBON *      MOCLDY    68  63  83 S5        29.82R
CLARINDA *       N/A     70  63  78 MISG      29.82S
COUNCIL BLFS * CLEAR     70  63  78 S8        29.78F
CRESTON *      CLOUDY    68  61  77 SW10      29.85R
HARLAN  *        N/A    N/A N/A N/A MISG        N/A
LAMONI         PTCLDY    69  62  78 S6        29.83R
RED OAK *      PTCLDY    70  61  73 S10       29.80S
SHENANDOAH *   PTCLDY    70  63  78 S12       29.79F
$$

IAZ047>049-059>061-072>074-084-240200-
   CENTRAL IOWA

CITY           SKY/WX    TMP DP  RH WIND       PRES   REMARKS
AMES           CLOUDY    70  60  70 S7        29.82R
ANKENY *       CLOUDY    72  63  73 CALM      29.83R
BOONE *        CLOUDY    70  61  73 S12       29.82R
CHARITON *     PTCLDY    72  61  68 S5        29.83R
DES MOINES     CLOUDY    72  59  63 SW3       29.83R
GRINNELL*      CLEAR     73  54  49 S7        29.84R
KNOXVILLE *    MOCLDY    73  59  60 W7        29.83R
MARSHALLTOWN   CLOUDY    73  57  57 S7        29.81S
NEWTON *       CLOUDY    75  55  50 S8        29.83R
PELLA *        CLOUDY    74  54  49 CALM      29.84R
PERRY *          N/A     70  63  78 SE13      29.82R
$$

IAZ004>006-015-016-023>025-035-036-240200-
   NORTH CENTRAL IOWA

CITY           SKY/WX    TMP DP  RH WIND       PRES   REMARKS
ALGONA *       CLOUDY    68  63  83 S15       29.79S
CLARION *      CLOUDY    68  64  88 S9        29.82R
ESTHERVILLE    CLOUDY    67  61  81 S12       29.79S
FORT DODGE *   CLOUDY    66  61  82 S7        29.82R
MASON CITY     MOCLDY    69  63  81 SW7       29.82S
FOREST CITY *  CLEAR     66  63  88 S8        29.81S
WEBSTER CITY * CLOUDY    70  63  78 S9        29.80R
IOWA FALLS *     N/A     72  61  68 S7        29.83R
$$

IAZ007>011-017>019-026>030-037>042-050>054-066-240200-
   NORTHEAST IOWA

CITY           SKY/WX    TMP DP  RH WIND       PRES   REMARKS
CEDAR RAPIDS   MOCLDY    77  53  43 S9        29.84S
CHARLES CITY * CLOUDY    73  66  78 S3        29.82S
CLINTON *      PTCLDY    75  49  39 S9        29.87F
DECORAH *      CLOUDY    72  61  68 VRB5      29.82F
DUBUQUE        CLEAR     71  47  42 S8        29.87S
MONTICELLO *   CLEAR     75  48  38 S7        29.85S
OELWEIN *      CLOUDY    77  55  47 SW9G16    29.83F
WATERLOO       CLOUDY    75  56  51 S9        29.81F
$$

IAZ064-065-067-068-078-240200-
   EAST CENTRAL IOWA

CITY           SKY/WX    TMP DP  RH WIND       PRES   REMARKS
DAVENPORT      CLOUDY    76  46  34 S9        29.87F
IOWA CITY      PTCLDY    77  51  40 S8        29.86S
MT. PLEASANT * CLOUDY    79  52  38 SE7       29.85F
MUSCATINE *    CLOUDY    77  50  38 S6        29.86S
QUAD CITIES    CLOUDY    78  46  32 S6        29.86S
$$

IAZ062-063-075>077-085>089-095>099-240200-
   SOUTHEAST IOWA

CITY           SKY/WX    TMP DP  RH WIND       PRES   REMARKS
BURLINGTON     CLOUDY    71  54  54 S6        29.86F
FAIRFIELD *      N/A    N/A N/A N/A MISG        N/A
FORT MADISON * MOCLDY    75  54  46 S5        29.87F
KEOKUK *       CLOUDY    75  54  46 S5        29.85F
OSKALOOSA *      N/A     75  52  43 SE13      29.83S
OTTUMWA        MOCLDY    74  54  49 SE9       29.82F
WASHINGTON *   CLEAR     77  52  41 S9        29.86S
$$

ABBREVIATIONS USED IN REMARKS
   TC - TEMPERATURES IN CELSIUS
  WCI - WIND CHILL INDEX
   HX - HEAT INDEX
  VSB - VISIBILITY
$$





USA.gov is the U.S. government's official web portal to all federal, state and local government web resources and services.